loading
|

STARLINK-32221, 60342

Orbit data source: Space-Track

STARLINK-32221, 60342 is a payload satellite owned by SpaceX/Seattle (US) in LEO that was launched on Fri, 02 Aug 2024 UTC via an FALCON 9 launch vehicle from the Air Force Eastern Test Range (AFETR). Payloads include a variety of satellites, spacecraft, and rockets equipped with specific instruments for various scientific and technological missions. These include communications satellites like Starlink; space stations such as the ISS; scientific satellites like the Hubble; Earth observation satellites from companies like Planet Labs, Umbra, and HawkEye 360; GPS; miniature CubeSats for education and research; and military/defense satellites.

Loading next visibility...
Loading greatness...
STARLINK-32221 details
Identifier
60342, 2024-136P
Orbit
LEO
Last TLE update11 hours ago
Origin
Flag of USSpaceX/Seattle (US)
ManufacturerSpaceX/Seattle
Mission statusOperational
MissionUnknown
Bus & MotorSTARLINK V2M, Unknown motor
Mass750 kg wet, ~700 kg dry
Launch date (UTC)
2024-08-02 (2 months ago)
Launch vehicle
FALCON 9
Launch site
Air Force Eastern Test Range (AFETR)
Object type
Payload
Rocket body
Debris
Radar Cross SectionLarge (>1 m²)

Expand to show TLE details & history

TLE from 11 hours ago
0 STARLINK-32221
1 60342U 24136P   24261.46473663  .00000634  00000-0  25839-4 0  9999
2 60342  53.1622  56.0994 0001588  87.7417 272.3770 15.39622598  7257
Epoch: 2024-09-17T11:09Z
Definitive object data (Epoch: 2024-09-17T11:09:13.244Z)
Latitude-0.00002°
Longitude-108.08481°
Altitude448.083 km
Speed7.645 km/s
True Right ascension03h 44m 23s
True Declination0° 00' 00"
Sunlit
Object was in full shadow at TLE epoch
Predictive object data (real-time)
Latitude53.22828°
Longitude-15.75406°
Altitude452.691 km
Speed7.648 km/s
Apparent Right ascension06h 11m 10s
Apparent Declination13° 14' 13"
Sunlit
Object is in daylight
Predictive observer data (real-time)
Local Sidereal Time15:16:30
Azimuth313.032° NW
Elevation-23.151°
Doppler factor1
Orbital elements
Apogee448.565 km
Perigee446.398 km
Semi-major axis6,825.619 km
Eccentricity0.0001588
Inclination53.1622°
RAAN56.0994°
Arg. of periapsis87.7417°
True anomaly272.35882°
Mean anomaly272.377°
Eccentric anomaly272.36791°
Mean motion3.84884 °/min
BSTAR0.000025839
Period93.53 mins
No data available

STARLINK-32221 Visibility forecast

Observer location: 39.9160978°, -105.1181434

STARLINK-32221 is not visible in the next 10 days
Span
Click to sort rows by Start time (UTC) header in descending order
Start Az.
Max El. time (UTC)
Max El. Az.
Max El.
End time (UTC)
End Az.